This is the latest recevied weather packets stored in our database for station/object DO7CRZ-12. If no packets are shown the sender has not sent any weather packets the latest 10 day(s).
| Time | Temp. | Humidity | Pressure | Rain* | Wind** | Luminosity | Snow |
|---|---|---|---|---|---|---|---|
| 1777481850 | 20.56° C | 15% | 1028.5 hPa | 0 mm | - | 124 W/m² | - |
| 1777481247 | 21.11° C | 16% | 1028.4 hPa | 0 mm | - | 138 W/m² | - |
| 1777480644 | 21.11° C | 15% | 1028.5 hPa | 0 mm | - | 154 W/m² | - |
| 1777480041 | 21.11° C | 15% | 1028.3 hPa | 0 mm | - | 170 W/m² | - |
| 1777478835 | 21.67° C | 15% | 1028.3 hPa | 0 mm | - | 177 W/m² | - |
| 1777478248 | 21.67° C | 14% | 1028.2 hPa | 0 mm | - | 171 W/m² | - |
| 1777477042 | 21.11° C | 14% | 1028.1 hPa | 0 mm | - | 175 W/m² | - |
| 1777476439 | 20.56° C | 15% | 1028.1 hPa | 0 mm | - | 189 W/m² | - |
| 1777475836 | 20° C | 16% | 1028 hPa | 0 mm | - | 211 W/m² | - |
| 1777475248 | 19.44° C | 16% | 1028 hPa | 0 mm | - | 236 W/m² | - |
| 1777474646 | 19.44° C | 16% | 1028 hPa | 0 mm | - | 259 W/m² | - |
| 1777474043 | 19.44° C | 16% | 1028 hPa | 0 mm | - | 279 W/m² | - |
| 1777473440 | 19.44° C | 16% | 1027.9 hPa | 0 mm | - | 300 W/m² | - |
| 1777472250 | 20° C | 16% | 1028.1 hPa | 0 mm | - | 323 W/m² | - |
| 1777471647 | 19.44° C | 16% | 1028 hPa | 0 mm | - | 338 W/m² | - |
| 1777471043 | 19.44° C | 16% | 1028.1 hPa | 0 mm | - | 353 W/m² | - |
| 1777470441 | 20° C | 15% | 1027.9 hPa | 0 mm | - | 371 W/m² | - |
| 1777469838 | 20° C | 15% | 1027.9 hPa | 0 mm | - | 386 W/m² | - |
| 1777469235 | 20° C | 15% | 1027.8 hPa | 0 mm | - | 401 W/m² | - |
| 1777468648 | 20° C | 15% | 1027.8 hPa | 0 mm | - | 417 W/m² | - |
| 1777468044 | 20° C | 15% | 1027.9 hPa | 0 mm | - | 470 W/m² | - |
| 1777467442 | 21.11° C | 14% | 1027.8 hPa | 0 mm | - | 522 W/m² | - |
| 1777466839 | 21.11° C | 15% | 1027.9 hPa | 0 mm | - | 539 W/m² | - |
| 1777466236 | 21.11° C | 15% | 1027.9 hPa | 0 mm | - | 554 W/m² | - |
| 1777465649 | 21.11° C | 14% | 1027.9 hPa | 0 mm | - | 571 W/m² | - |
* Rain latest hour (hover to see other rain measurements)
** Current wind speed in m/s (hover to see current wind gust speed)